TimeEDT,TemperatureF,Dew PointF,Humidity,Sea Level PressureIn,VisibilityMPH,Wind Direction,Wind SpeedMPH,Gust SpeedMPH,PrecipitationIn,Events,Conditions,WindDirDegrees,DateUTC
12:51 AM,57.9,55.9,93,30.10,6.0,East,3.5,-,N/A,,Clear,100,2013-09-29 04:51:00
1:51 AM,57.9,55.0,90,30.10,9.0,ESE,3.5,-,N/A,,Partly Cloudy,110,2013-09-29 05:51:00
2:51 AM,57.0,55.0,93,30.09,9.0,East,3.5,-,N/A,,Clear,100,2013-09-29 06:51:00
3:51 AM,55.9,54.0,93,30.09,10.0,Calm,Calm,-,N/A,,Scattered Clouds,0,2013-09-29 07:51:00
4:51 AM,57.0,54.0,89,30.08,10.0,Calm,Calm,-,N/A,,Scattered Clouds,0,2013-09-29 08:51:00
5:51 AM,57.0,54.0,89,30.09,10.0,Calm,Calm,-,N/A,,Mostly Cloudy,0,2013-09-29 09:51:00
6:51 AM,57.0,53.1,87,30.10,10.0,SSE,3.5,-,N/A,,Mostly Cloudy,160,2013-09-29 10:51:00
7:51 AM,57.0,53.1,87,30.11,10.0,Calm,Calm,-,N/A,,Mostly Cloudy,0,2013-09-29 11:51:00
8:51 AM,57.9,55.0,90,30.11,10.0,Calm,Calm,-,N/A,,Mostly Cloudy,0,2013-09-29 12:51:00
9:51 AM,61.0,55.0,81,30.11,10.0,SSW,6.9,-,N/A,,Overcast,200,2013-09-29 13:51:00
10:51 AM,66.0,57.0,73,30.10,10.0,SSW,6.9,-,N/A,,Scattered Clouds,210,2013-09-29 14:51:00
11:51 AM,70.0,59.0,68,30.09,10.0,Variable,5.8,-,N/A,,Scattered Clouds,0,2013-09-29 15:51:00
12:51 PM,73.9,60.1,62,30.08,10.0,SSW,4.6,-,N/A,,Clear,210,2013-09-29 16:51:00
1:51 PM,75.0,60.1,60,30.06,10.0,Variable,4.6,-,N/A,,Mostly Cloudy,0,2013-09-29 17:51:00
2:51 PM,73.0,59.0,61,30.04,10.0,SW,4.6,-,N/A,,Overcast,220,2013-09-29 18:51:00
3:51 PM,72.0,59.0,64,30.03,10.0,WSW,3.5,-,N/A,,Overcast,240,2013-09-29 19:51:00
4:51 PM,72.0,61.0,68,30.02,10.0,Calm,Calm,-,N/A,,Clear,0,2013-09-29 20:51:00
5:51 PM,72.0,60.1,66,30.02,10.0,Calm,Calm,-,N/A,,Clear,0,2013-09-29 21:51:00
6:51 PM,70.0,60.1,71,30.02,10.0,Calm,Calm,-,N/A,,Clear,0,2013-09-29 22:51:00
7:51 PM,66.9,62.1,84,30.01,10.0,Calm,Calm,-,N/A,,Clear,0,2013-09-29 23:51:00
8:51 PM,64.0,61.0,90,30.02,10.0,Calm,Calm,-,N/A,,Clear,0,2013-09-30 00:51:00
9:51 PM,64.0,61.0,90,30.03,10.0,SSW,3.5,-,N/A,,Clear,210,2013-09-30 01:51:00
10:51 PM,63.0,61.0,93,30.03,7.0,Calm,Calm,-,N/A,,Clear,0,2013-09-30 02:51:00
11:51 PM,62.1,60.1,93,30.03,5.0,North,3.5,-,N/A,,Scattered Clouds,350,2013-09-30 03:51:00